Location: Centerville
(32.8776°N, 96.6203°W)
Time: 04:42:56
(UTC+00:00)

Cosmos 1707 - Pass Details

Date: 17 June 2021
Orbit: 514 x 529 km, 82.5° (Epoch: 29 July)

Event Time Altitude Azimuth Distance (km) Brightness Sun altitude
Exits shadow 03:13:48 18° 194° (SSW) 1,347 4.5 -17.2°
Maximum altitude 03:16:38 72° 277° (W) 555 2.9 -17.7°
Drops below altitude 10° 03:20:31 10° 2° (N) 1,772 6.0 -18.2°
Sets 03:22:41 0° 4° (N) 2,667 6.9 -18.6°
